GW6754 Weather Reports


time (UTC)temp
C
wind
direction
speed
KPH
gust
KPH
rain 1hr
cm
rain 24hr
cm
rain mn
cm
humidity
%
barometer
mb
20260506002301 26 172 8.0 20.9 0.00 0.00 0.00 78 1006.9
20260506001251 27 186 9.7 14.5 0.00 0.00 0.00 78 1006.8
20260506000259 27 186 9.7 20.9 0.00 0.00 0.00 77 1006.8
20260505235226 27 197 12.9 24.1 0.00 0.00 0.00 76 1006.8
20260505234232 27 182 11.3 19.3 0.00 0.00 0.00 77 1006.8
20260505233301 27 196 8.0 19.3 0.00 0.00 0.00 77 1006.8
20260505232231 27 188 14.5 27.4 0.00 0.00 0.00 76 1006.7
20260505231238 27 172 11.3 22.5 0.00 0.00 0.00 76 1006.7
20260505230226 27 184 9.7 20.9 0.00 0.00 0.00 76 1006.7
20260505225234 27 210 12.9 25.7 0.00 0.00 0.00 75 1006.8
20260505224303 28 190 9.7 27.4 0.00 0.00 0.00 75 1006.6
20260505223230 27 175 12.9 27.4 0.00 0.00 0.00 75 1006.8
20260505222236 28 208 12.9 25.7 0.00 0.00 0.00 74 1006.8
20260505221242 28 218 12.9 27.4 0.00 0.00 0.00 74 1006.8
20260505220229 28 184 12.9 29.0 0.00 0.00 0.00 75 1006.8
20260505215301 28 175 11.3 27.4 0.00 0.00 0.00 75 1007.0
20260505214244 28 220 14.5 24.1 0.00 0.00 0.00 74 1007.3
20260505213233 28 176 12.9 24.1 0.00 0.00 0.00 75 1007.4
20260505212301 28 173 12.9 24.1 0.00 0.00 0.00 75 1007.5
20260505211230 28 163 14.5 29.0 0.00 0.00 0.00 75 1007.6
20260505210240 28 173 14.5 27.4 0.00 0.00 0.00 75 1007.8
20260505205228 28 162 11.3 24.1 0.00 0.00 0.00 75 1007.9
20260505204234 28 159 14.5 25.7 0.00 0.00 0.00 75 1007.9
20260505203228 28 129 14.5 25.7 0.00 0.00 0.00 75 1008.1
20260505202236 28 181 12.9 25.7 0.00 0.00 0.00 76 1008.2
20260505201242 28 221 16.1 24.1 0.00 0.00 0.00 75 1008.3
20260505200252 27 202 11.3 24.1 0.00 0.00 0.00 77 1008.5
20260505195241 27 204 9.7 22.5 0.00 0.00 0.00 78 1008.6
20260505194228 27 67 8.0 19.3 0.00 0.00 0.00 77 1008.8
20260505193237 27 186 9.7 19.3 0.00 0.00 0.00 78 1008.9
20260505192225 27 198 6.4 19.3 0.00 0.00 0.00 78 1009.0
20260505191234 27 185 9.7 17.7 0.00 0.00 0.00 78 1009.0
20260505190303 27 169 11.3 22.5 0.00 0.00 0.00 78 1009.1
20260505185230 27 187 9.7 19.3 0.00 0.00 0.00 79 1009.1
20260505184237 27 192 12.9 25.7 0.00 0.00 0.00 78 1009.1
20260505183229 27 188 12.9 24.1 0.00 0.00 0.00 79 1009.3
20260505182237 27 179 12.9 19.3 0.00 0.00 0.00 79 1009.2
20260505181224 27 200 8.0 24.1 0.00 0.00 0.00 79 1009.4
20260505180253 27 177 9.7 27.4 0.00 0.00 0.00 79 1009.5
20260505175239 26 207 9.7 19.3 0.00 0.00 0.00 80 1009.6
20260505174229 26 200 12.9 25.7 0.00 0.00 0.00 80 1009.8
20260505173237 26 164 11.3 30.6 0.00 0.00 0.00 81 1009.7
20260505172225 26 183 11.3 19.3 0.00 0.00 0.00 81 1009.7
20260505171232 26 158 14.5 22.5 0.00 0.00 0.00 81 1009.7
20260505170225 26 144 9.7 30.6 0.00 0.00 0.00 82 1009.6
20260505165233 26 167 11.3 25.7 0.00 0.00 0.00 83 1009.7
20260505164259 26 187 11.3 19.3 0.00 0.00 0.00 82 1009.9
20260505163246 26 188 8.0 19.3 0.00 0.00 0.00 83 1009.8
20260505162237 26 172 16.1 35.4 0.00 0.00 0.00 83 1009.7
20260505161243 26 174 9.7 17.7 0.00 0.00 0.00 84 1009.7
20260505160232 25 175 11.3 30.6 0.00 0.00 0.00 84 1009.7
20260505153238 25 173 8.0 19.3 0.00 0.00 0.00 87 1009.5
20260505152226 25 179 8.0 16.1 0.00 0.00 0.00 87 1009.4
20260505151231 25 155 8.0 17.7 0.00 0.00 0.00 87 1009.5
20260505150225 24 195 9.7 16.1 0.00 0.00 0.00 88 1009.5
20260505140231 23 175 9.7 19.3 0.00 0.00 0.00 91 1009.1
20260505130227 21 175 4.8 9.7 0.00 0.00 0.00 93 1009.2
20260505124240 21 189 1.6 6.4 0.00 0.00 0.00 93 1009.0
20260505123232 21 175 1.6 8.0 0.00 0.00 0.00 93 1009.1
20260505122239 21 172 0.0 6.4 0.00 0.00 0.00 93 1009.0
20260505121226 21 168 1.6 4.8 0.00 0.00 0.00 93 1008.9
20260505120235 21 169 0.0 6.4 0.00 0.00 0.00 93 1008.8
20260505115227 21 160 1.6 6.4 0.00 0.00 0.00 93 1008.6
20260505114253 20 138 1.6 6.4 0.00 0.00 0.00 93 1008.5
20260505113241 20 177 1.6 8.0 0.00 0.00 0.00 93 1008.5
20260505112229 20 167 3.2 6.4 0.00 0.00 0.00 93 1008.7
20260505111240 20 166 3.2 6.4 0.00 0.00 0.00 93 1008.6
20260505110229 20 185 4.8 8.0 0.00 0.00 0.00 92 1008.4
20260505101230 20 175 4.8 9.7 0.00 0.00 0.00 92 1008.7
20260505100224 20 146 3.2 11.3 0.00 0.00 0.00 92 1008.6
20260505095232 20 176 3.2 8.0 0.00 0.00 0.00 92 1008.6
20260505094259 20 179 4.8 9.7 0.00 0.00 0.00 92 1008.9
20260505093226 20 167 6.4 8.0 0.00 0.00 0.00 92 1008.8
20260505092233 20 171 3.2 9.7 0.00 0.00 0.00 91 1008.7
20260505091224 20 194 4.8 9.7 0.00 0.00 0.00 91 1009.0
20260505090232 20 165 3.2 9.7 0.00 0.00 0.00 91 1009.0
20260505085239 20 192 3.2 9.7 0.00 0.00 0.00 91 1009.1
20260505084229 20 170 3.2 8.0 0.00 0.00 0.00 91 1009.1
20260505083237 20 181 3.2 8.0 0.00 0.00 0.00 90 1009.2
20260505082243 20 188 3.2 8.0 0.00 0.00 0.00 90 1009.4
20260505081249 20 190 3.2 8.0 0.00 0.00 0.00 90 1009.4
20260505080237 20 175 4.8 9.7 0.00 0.00 0.00 90 1009.5
20260505075229 20 183 3.2 11.3 0.00 0.00 0.00 90 1009.5
20260505074234 20 148 4.8 9.7 0.00 0.00 0.00 89 1009.6
20260505073243 20 181 6.4 9.7 0.00 0.00 0.00 89 1009.6
20260505072231 20 188 3.2 9.7 0.00 0.00 0.00 89 1009.8
20260505071301 20 185 4.8 12.9 0.00 0.00 0.00 88 1009.8
20260505070249 20 168 4.8 14.5 0.00 0.00 0.00 88 1009.8
20260505065236 20 187 6.4 12.9 0.00 0.00 0.00 88 1009.9
20260505064241 20 189 6.4 12.9 0.00 0.00 0.00 87 1010.0
20260505063249 20 172 4.8 12.9 0.00 0.00 0.00 87 1010.1
20260505062240 21 165 4.8 14.5 0.00 0.00 0.00 87 1010.2
20260505061226 21 198 4.8 11.3 0.00 0.00 0.00 86 1010.3
20260505060254 21 175 4.8 12.9 0.00 0.00 0.00 86 1010.2
20260505055303 21 179 6.4 12.9 0.00 0.00 0.00 86 1010.5
20260505054230 21 130 8.0 16.1 0.00 0.00 0.00 85 1010.4
20260505053259 21 186 6.4 12.9 0.00 0.00 0.00 85 1010.5
20260505052225 21 168 3.2 14.5 0.00 0.00 0.00 85 1010.6
20260505051233 21 182 8.0 17.7 0.00 0.00 0.00 84 1010.8
20260505050225 21 167 4.8 12.9 0.00 0.00 0.00 84 1011.0
20260505041225 21 202 6.4 11.3 0.00 0.00 0.00 82 1011.1
20260505040233 21 169 4.8 12.9 0.00 0.00 0.00 82 1011.0
20260505035241 21 174 6.4 14.5 0.00 0.00 0.00 81 1011.1
20260505034230 21 177 8.0 14.5 0.00 0.00 0.00 81 1011.0
20260505033239 21 167 6.4 16.1 0.00 0.00 0.00 81 1011.1
20260505032227 22 166 6.4 9.7 0.00 0.00 0.00 80 1011.2
20260505031233 22 203 6.4 14.5 0.00 0.00 0.00 79 1011.2
20260505030226 22 180 6.4 11.3 0.00 0.00 0.00 79 1011.1
20260505025234 22 161 1.6 12.9 0.00 0.00 0.00 79 1011.1
20260505024240 22 177 1.6 11.3 0.00 0.00 0.00 78 1011.1
20260505023230 22 183 6.4 14.5 0.00 0.00 0.00 78 1011.0
20260505022242 22 194 6.4 12.9 0.00 0.00 0.00 77 1011.1
20260505021229 22 182 4.8 12.9 0.00 0.00 0.00 77 1011.0
20260505020238 22 202 6.4 17.7 0.00 0.00 0.00 76 1010.7
20260505015229 23 171 4.8 14.5 0.00 0.00 0.00 76 1010.7
20260505014235 23 184 6.4 14.5 0.00 0.00 0.00 74 1010.7
20260505013243 23 178 8.0 16.1 0.00 0.00 0.00 73 1010.6
20260505012231 24 145 9.7 22.5 0.00 0.00 0.00 73 1010.3
20260505011236 24 177 9.7 22.5 0.00 0.00 0.00 72 1010.3
20260505010229 24 148 9.7 16.1 0.00 0.00 0.00 72 1010.2
20260505005237 24 198 8.0 16.1 0.00 0.00 0.00 71 1010.4
20260505004223 25 198 8.0 16.1 0.00 0.00 0.00 70 1010.4
20260505003253 25 181 9.7 19.3 0.00 0.00 0.00 69 1010.4